This is the latest recevied weather packets stored in our database for station/object N1ORT. If no packets are shown the sender has not sent any weather packets the latest 10 day(s).
| Time | Temp. | Humidity | Pressure | Rain* | Wind** | Luminosity | Snow |
|---|---|---|---|---|---|---|---|
| 1777937115 | 20° C | 38% | 1005 hPa | 0 mm | - | 12 W/m² | - |
| 1777936813 | 20° C | 35% | 1004.9 hPa | 0 mm | - | 15 W/m² | - |
| 1777936509 | 20° C | 37% | 1004.9 hPa | 0 mm | - | 18 W/m² | - |
| 1777936205 | 20.56° C | 34% | 1004.7 hPa | 0 mm | - | 21 W/m² | - |
| 1777935902 | 20.56° C | 34% | 1004.7 hPa | 0 mm | - | 27 W/m² | - |
| 1777935601 | 20.56° C | 34% | 1004.6 hPa | 0 mm | - | 31 W/m² | - |
| 1777935297 | 21.11° C | 33% | 1004.4 hPa | 0 mm | - | 33 W/m² | - |
| 1777934994 | 21.11° C | 32% | 1004.4 hPa | 0 mm | - | 33 W/m² | - |
| 1777934691 | 21.11° C | 32% | 1004.6 hPa | 0 mm | - | 39 W/m² | - |
| 1777934388 | 21.11° C | 32% | 1004.4 hPa | 0 mm | - | 44 W/m² | - |
| 1777934084 | 21.11° C | 33% | 1004.3 hPa | 0 mm | - | 46 W/m² | - |
| 1777933780 | 21.67° C | 33% | 1004.4 hPa | 0 mm | - | 68 W/m² | - |
| 1777933477 | 21.67° C | 33% | 1004.4 hPa | 0 mm | - | 56 W/m² | - |
| 1777933175 | 21.67° C | 33% | 1004.4 hPa | 0 mm | - | 59 W/m² | - |
| 1777932872 | 21.67° C | 32% | 1004.7 hPa | 0 mm | - | 60 W/m² | - |
| 1777932569 | 21.67° C | 32% | 1004.4 hPa | 0 mm | - | 64 W/m² | - |
| 1777932265 | 21.67° C | 34% | 1004.4 hPa | 0 mm | - | 100 W/m² | - |
| 1777931963 | 21.67° C | 31% | 1004.3 hPa | 0 mm | - | 98 W/m² | - |
| 1777931659 | 21.67° C | 32% | 1004.4 hPa | 0 mm | - | 90 W/m² | - |
| 1777931356 | 21.67° C | 33% | 1004.4 hPa | 0 mm | - | 105 W/m² | - |
| 1777931052 | 21.67° C | 31% | 1004 hPa | 0 mm | - | 73 W/m² | - |
| 1777930749 | 21.11° C | 33% | 1004.3 hPa | 0 mm | - | 136 W/m² | - |
| 1777930445 | 21.67° C | 31% | 1004.4 hPa | 0 mm | - | 74 W/m² | - |
| 1777930143 | 21.67° C | 31% | 1004.5 hPa | 0 mm | - | 88 W/m² | - |
| 1777929838 | 22.22° C | 30% | 1004.4 hPa | 0 mm | - | 206 W/m² | - |
* Rain latest hour (hover to see other rain measurements)
** Current wind speed in m/s (hover to see current wind gust speed)